EW7937 Weather Reports


Display with metric or nautical units.
time (UTC)temp
F
wind
direction
speed
MPH
gust
MPH
rain 1hr
in
rain 24hr
in
rain mn
in
humidity
%
barometer
mb
20260901131303 59 294 0.0 0.0 0.00 0.00 0.00 73 1013.9
20260901130803 59 294 0.0 0.0 0.00 0.00 0.00 73 1013.9
20260901130305 59 294 0.0 0.0 0.00 0.00 0.00 72 1013.7
20260901125804 60 294 0.0 0.0 0.00 0.00 0.00 72 1013.7
20260901125308 60 294 0.0 0.0 0.00 0.00 0.00 72 1013.6
20260901124803 60 294 0.0 0.0 0.00 0.00 0.00 71 1013.5
20260901124305 60 294 0.0 0.0 0.00 0.00 0.00 71 1013.4
20260901123805 60 294 0.0 0.0 0.00 0.00 0.00 71 1013.4
20260901123305 60 294 0.0 0.0 0.00 0.00 0.00 71 1013.5
20260901122804 60 294 0.0 0.0 0.00 0.00 0.00 71 1013.5
20260901122258 60 294 0.0 0.0 0.00 0.00 0.00 71 1013.6
20260901121758 60 294 0.0 1.0 0.00 0.00 0.00 71 1013.7
20260901121255 60 294 0.0 1.0 0.00 0.00 0.00 71 1013.6
20260901120756 60 295 0.0 5.0 0.00 0.00 0.00 71 1013.6
20260901120252 60 295 0.0 5.0 0.00 0.00 0.00 71 1013.4
20260901115752 60 293 0.0 5.0 0.00 0.00 0.00 71 1013.3
20260901115253 61 303 1.0 4.0 0.00 0.00 0.00 71 1013.3
20260901114750 61 298 0.0 0.0 0.00 0.00 0.00 71 1013.3
20260901114249 61 298 0.0 0.0 0.00 0.00 0.00 72 1013.4
20260901114037 61 298 0.0 0.0 0.00 0.00 0.00 72 1013.4
20260901113537 61 298 0.0 7.0 0.00 0.00 0.00 71 1013.4
20260901112738 61 298 0.0 7.0 0.00 0.00 0.00 71 1013.4
20260901112237 61 304 0.0 1.0 0.00 0.00 0.00 71 1013.4
20260901111730 61 304 0.0 1.0 0.00 0.00 0.00 71 1013.3
20260901111233 61 304 0.0 0.0 0.00 0.00 0.00 71 1013.2
20260901110733 62 304 0.0 0.0 0.00 0.00 0.00 70 1013.3
20260901110232 62 304 0.0 1.0 0.00 0.00 0.00 70 1013.3
20260901105733 62 304 0.0 1.0 0.00 0.00 0.00 70 1013.3
20260901105228 62 304 0.0 0.0 0.00 0.00 0.00 70 1013.2
20260901104725 62 304 0.0 0.0 0.00 0.00 0.00 70 1013.2
20260901104220 62 304 0.0 0.0 0.00 0.00 0.00 70 1013.2
20260901103711 62 304 0.0 2.0 0.00 0.00 0.00 69 1013.1
20260901103208 62 304 0.0 2.0 0.00 0.00 0.00 69 1013.2
20260901102705 62 319 0.0 3.0 0.00 0.00 0.00 69 1013.0
20260901102203 62 319 0.0 5.0 0.00 0.00 0.00 69 1012.8
20260901101705 63 297 1.0 5.0 0.00 0.00 0.00 69 1012.8
20260901101203 63 296 0.0 0.0 0.00 0.00 0.00 68 1012.9
20260901100702 63 296 0.0 0.0 0.00 0.00 0.00 68 1012.9
20260901100244 63 296 0.0 0.0 0.00 0.00 0.00 68 1012.6
20260901100228 63 296 0.0 0.0 0.00 0.00 0.00 68 1012.8
20260901095205 63 296 0.0 0.0 0.00 0.00 0.00 68 1012.8
20260901094705 64 296 0.0 1.0 0.00 0.00 0.00 68 1012.7
20260901094205 64 296 0.0 4.0 0.00 0.00 0.00 67 1012.6
20260901093703 64 289 0.0 4.0 0.00 0.00 0.00 67 1012.6
20260901093204 64 300 0.0 4.0 0.00 0.00 0.00 67 1012.7
20260901092704 64 300 1.0 4.0 0.00 0.00 0.00 67 1012.6
20260901092202 64 276 0.0 11.0 0.00 0.00 0.00 67 1012.5
20260901091703 64 295 2.0 11.0 0.00 0.00 0.00 66 1012.6
20260901091202 65 297 1.0 9.0 0.00 0.00 0.00 66 1012.6
20260901090704 65 269 0.0 9.0 0.00 0.00 0.00 66 1012.6
20260901090204 65 296 1.0 8.0 0.00 0.00 0.00 66 1012.8
20260901085703 65 302 0.0 8.0 0.00 0.00 0.00 66 1012.7
20260901085204 65 302 0.0 8.0 0.00 0.00 0.00 66 1012.5
20260901084703 65 311 0.0 8.0 0.00 0.00 0.00 65 1012.5
20260901084204 65 309 0.0 1.0 0.00 0.00 0.00 65 1012.5
20260901083702 66 306 0.0 9.0 0.00 0.00 0.00 65 1012.6
20260901083202 66 306 0.0 9.0 0.00 0.00 0.00 65 1012.4
20260901082704 66 283 0.0 8.0 0.00 0.00 0.00 65 1012.4
20260901082447 66 311 1.0 7.0 0.00 0.00 0.00 64 1012.4
20260901081703 66 321 0.0 3.0 0.00 0.00 0.00 64 1012.5
20260901081204 67 319 0.0 3.0 0.00 0.00 0.00 64 1012.4
20260901080703 67 314 0.0 1.0 0.00 0.00 0.00 64 1012.4
20260901080447 67 301 0.0 0.0 0.00 0.00 0.00 63 1012.5
20260901075704 67 301 0.0 4.0 0.00 0.00 0.00 63 1012.6
20260901075205 67 301 0.0 4.0 0.00 0.00 0.00 63 1012.5
20260901074704 67 302 0.0 7.0 0.00 0.00 0.00 62 1012.5
20260901074204 68 294 0.0 7.0 0.00 0.00 0.00 62 1012.4
20260901073952 68 298 0.0 9.0 0.00 0.00 0.00 62 1012.4
20260901073202 68 294 0.0 13.0 0.00 0.00 0.00 62 1012.4
20260901072703 68 306 2.0 13.0 0.00 0.00 0.00 61 1012.3
20260901072202 68 311 0.0 7.0 0.00 0.00 0.00 61 1012.2
20260901071705 69 329 1.0 8.0 0.00 0.00 0.00 60 1012.2
20260901071453 69 306 0.0 8.0 0.00 0.00 0.00 60 1012.1
20260901070702 69 315 0.0 1.0 0.00 0.00 0.00 60 1012.0
20260901070203 0 0.0 0.0 0.00 0.00 0.00
20260901065704 70 296 0.0 0.0 0.00 0.00 0.00 58 1012.0
20260901065435 70 296 0.0 13.0 0.00 0.00 0.00 58 1012.0
20260901064747 70 282 4.0 11.0 0.00 0.00 0.00 57 1011.8
20260901064733 70 296 1.0 13.0 0.00 0.00 0.00 58 1012.0
20260901063704 71 304 1.0 8.0 0.00 0.00 0.00 56 1011.7
20260901063205 71 307 3.0 8.0 0.00 0.00 0.00 56 1011.6
20260901062703 71 295 1.0 7.0 0.00 0.00 0.00 56 1011.6
20260901062202 71 305 1.0 7.0 0.00 0.00 0.00 55 1011.5
20260901061702 72 305 3.0 3.0 0.00 0.00 0.00 54 1011.3
20260901061205 72 311 1.0 2.0 0.00 0.00 0.00 53 1011.5
20260901060703 73 305 5.0 4.0 0.00 0.00 0.00 52 1011.3
20260901060203 73 300 4.0 4.0 0.00 0.00 0.00 52 1011.4
20260901055939 73 309 0.0 4.0 0.00 0.00 0.00 51 1011.3
20260901055445 73 299 0.0 0.0 0.00 0.00 0.00 51 1011.2
20260901054704 74 299 0.0 0.0 0.00 0.00 0.00 49 1011.1
20260901054203 74 299 0.0 0.0 0.00 0.00 0.00 49 1011.1
20260901053704 74 299 1.0 1.0 0.00 0.00 0.00 48 1011.1
20260901053204 75 299 3.0 6.0 0.00 0.00 0.00 48 1011.1
20260901052704 75 277 1.0 7.0 0.00 0.00 0.00 47 1011.0
20260901052202 75 273 0.0 7.0 0.00 0.00 0.00 46 1010.9
20260901051703 76 298 0.0 5.0 0.00 0.00 0.00 44 1010.9
20260901051204 76 298 0.0 9.0 0.00 0.00 0.00 44 1010.9
20260901050703 76 295 2.0 9.0 0.00 0.00 0.00 44 1010.9
20260901050202 77 312 1.0 7.0 0.00 0.00 0.00 43 1010.7
20260901045704 77 297 0.0 8.0 0.00 0.00 0.00 42 1010.6
20260901045203 77 300 1.0 9.0 0.00 0.00 0.00 42 1010.6
20260901044705 78 298 1.0 10.0 0.00 0.00 0.00 42 1010.4
20260901044203 78 306 0.0 10.0 0.00 0.00 0.00 42 1010.5
20260901043703 78 301 0.0 6.0 0.00 0.00 0.00 41 1010.6
20260901043204 79 301 0.0 7.0 0.00 0.00 0.00 41 1010.3
20260901042705 79 307 0.0 9.0 0.00 0.00 0.00 41 1010.4
20260901042203 79 298 1.0 9.0 0.00 0.00 0.00 40 1010.4
20260901041705 80 325 0.0 9.0 0.00 0.00 0.00 40 1010.2
20260901041203 80 294 1.0 9.0 0.00 0.00 0.00 39 1010.2
20260901040704 80 298 0.0 8.0 0.00 0.00 0.00 38 1010.1
20260901040205 81 319 1.0 10.0 0.00 0.00 0.00 38 1010.0
20260901035704 81 300 0.0 10.0 0.00 0.00 0.00 38 1009.9
20260901035205 81 305 0.0 8.0 0.00 0.00 0.00 37 1009.7
20260901034703 82 290 0.0 8.0 0.00 0.00 0.00 37 1009.7
20260901034202 82 282 1.0 10.0 0.00 0.00 0.00 37 1009.7
20260901033702 82 289 2.0 10.0 0.00 0.00 0.00 36 1009.7
20260901033202 83 304 0.0 7.0 0.00 0.00 0.00 36 1009.6
20260901032706 83 290 0.0 7.0 0.00 0.00 0.00 36 1009.6
20260901032204 83 298 0.0 7.0 0.00 0.00 0.00 35 1009.5
20260901031705 84 313 0.0 1.0 0.00 0.00 0.00 35 1009.4
20260901031204 84 313 0.0 13.0 0.00 0.00 0.00 35 1009.4
20260901030702 84 309 3.0 13.0 0.00 0.00 0.00 34 1009.3
20260901030449 85 304 0.0 0.0 0.00 0.00 0.00 34 1009.3
20260901025935 85 304 0.0 0.0 0.00 0.00 0.00 34 1009.2
20260901025443 86 304 0.0 3.0 0.00 0.00 0.00 33 1009.2
20260901024938 86 304 0.0 3.0 0.00 0.00 0.00 33 1009.2
20260901024204 86 332 0.0 1.0 0.00 0.00 0.00 33 1009.2
20260901023704 87 323 0.0 8.0 0.00 0.00 0.00 33 1009.1
20260901023203 87 323 1.0 8.0 0.00 0.00 0.00 32 1009.1
20260901022705 87 302 0.0 4.0 0.00 0.00 0.00 32 1009.1
20260901022205 87 240 0.0 0.0 0.00 0.00 0.00 31 1009.1
20260901021702 88 240 0.0 0.0 0.00 0.00 0.00 31 1009.1
20260901021205 88 240 0.0 0.0 0.00 0.00 0.00 30 1009.1
20260901020704 89 240 0.0 0.0 0.00 0.00 0.00 29 1008.9
20260901020438 0 0.0 0.0 0.00 0.00 0.00
20260901015957 90 240 0.0 0.0 0.00 0.00 0.00 28 1008.9
20260901015714 90 240 0.0 0.0 0.00 0.00 0.00 28 1008.9
20260901014656 90 240 0.0 0.0 0.00 0.00 0.00 28 1008.8
20260901014145 90 240 0.0 0.0 0.00 0.00 0.00 28 1008.8
20260901013630 91 240 0.0 0.0 0.00 0.00 0.00 26 1008.8
20260901013133 91 240 0.0 0.0 0.00 0.00 0.00 27 1008.8
20260901012631 91 240 0.0 2.0 0.00 0.00 0.00 26 1008.9
20260901012132 91 240 0.0 2.0 0.00 0.00 0.00 26 1008.8
20260901011633 92 161 0.0 0.0 0.00 0.00 0.00 27 1008.9
20260901011133 92 161 0.0 0.0 0.00 0.00 0.00 26 1008.9
20260901010633 92 161 0.0 0.0 0.00 0.00 0.00 26 1008.8
20260901010406 92 161 0.0 0.0 0.00 0.00 0.00 26 1008.9
20260901005611 92 161 0.0 0.0 0.00 0.00 0.00 25 1008.9
20260901005347 93 161 0.0 0.0 0.00 0.00 0.00 25 1009.0
20260901004604 93 161 0.0 0.0 0.00 0.00 0.00 26 1009.1
20260901004103 93 161 0.0 0.0 0.00 0.00 0.00 25 1009.1
20260901003837 94 161 0.0 0.0 0.00 0.00 0.00 25 1009.1
20260901003102 94 161 0.0 0.0 0.00 0.00 0.00 25 1009.1
20260901002603 94 161 0.0 8.0 0.00 0.00 0.00 24 1009.2
20260901002105 94 161 0.0 8.0 0.00 0.00 0.00 24 1009.2
20260901001605 94 205 0.0 0.0 0.00 0.00 0.00 25 1009.3
20260901001103 94 205 0.0 0.0 0.00 0.00 0.00 24 1009.3
20260901000602 94 205 0.0 0.0 0.00 0.00 0.00 24 1009.4
20260901000344 94 205 0.0 0.0 0.00 0.00 0.00 26 1009.3
20260831235603 94 205 0.0 0.0 0.00 0.00 0.00 24 1009.3
20260831235103 94 205 0.0 0.0 0.00 0.00 0.00 24 1009.4
20260831234601 94 205 0.0 0.0 0.00 0.00 0.00 24 1009.5
20260831234058 94 205 0.0 0.0 0.00 0.00 0.00 24 1009.5
20260831233553 95 205 0.0 0.0 0.00 0.00 0.00 23 1009.6
20260831233327 95 205 0.0 0.0 0.00 0.00 0.00 23 1009.5
20260831232543 95 205 0.0 0.0 0.00 0.00 0.00 22 1009.5
20260831232039 95 205 0.0 0.0 0.00 0.00 0.00 25 1009.7
20260831231534 95 205 0.0 0.0 0.00 0.00 0.00 23 1009.7
20260831231032 95 205 0.0 0.0 0.00 0.00 0.00 23 1009.7
20260831230532 95 205 0.0 0.0 0.00 0.00 0.00 23 1009.8
20260831230305 96 205 0.0 5.0 0.00 0.00 0.00 23 1009.8
20260831225533 96 205 0.0 5.0 0.00 0.00 0.00 23 1009.8
20260831225033 96 222 0.0 0.0 0.00 0.00 0.00 24 1009.9
20260831224534 96 222 0.0 0.0 0.00 0.00 0.00 24 1010.0
20260831224032 96 222 0.0 0.0 0.00 0.00 0.00 24 1010.1
20260831223532 96 222 0.0 0.0 0.00 0.00 0.00 24 1010.1
20260831223032 96 222 0.0 0.0 0.00 0.00 0.00 23 1010.2
20260831222824 96 222 0.0 0.0 0.00 0.00 0.00 23 1010.2
20260831222033 96 222 0.0 0.0 0.00 0.00 0.00 24 1010.3
20260831221532 96 222 0.0 0.0 0.00 0.00 0.00 23 1010.3
20260831221318 96 222 0.0 0.0 0.00 0.00 0.00 24 1010.4
20260831220533 96 222 0.0 0.0 0.00 0.00 0.00 23 1010.4
20260831220315 96 222 0.0 0.0 0.00 0.00 0.00 22 1010.5
20260831215532 96 222 0.0 0.0 0.00 0.00 0.00 24 1010.6
20260831215033 95 222 0.0 1.0 0.00 0.00 0.00 24 1010.7
20260831214534 95 222 0.0 1.0 0.00 0.00 0.00 25 1010.8
20260831214018 95 270 0.0 0.0 0.00 0.00 0.00 24 1010.8
20260831213513 94 270 0.0 0.0 0.00 0.00 0.00 27 1010.9
20260831213009 94 270 0.0 0.0 0.00 0.00 0.00 25 1011.0
20260831212505 94 270 0.0 0.0 0.00 0.00 0.00 24 1011.0
20260831212003 94 270 0.0 0.0 0.00 0.00 0.00 25 1011.1
20260831211504 94 270 0.0 0.0 0.00 0.00 0.00 26 1011.1
20260831211004 94 270 0.0 0.0 0.00 0.00 0.00 25 1011.2
20260831210504 93 270 0.0 0.0 0.00 0.00 0.00 26 1011.2
20260831210004 93 270 0.0 0.0 0.00 0.00 0.00 25 1011.1
20260831205503 93 270 0.0 0.0 0.00 0.00 0.00 26 1011.2
20260831205002 93 270 0.0 0.0 0.00 0.00 0.00 25 1011.2
20260831204503 93 270 0.0 0.0 0.00 0.00 0.00 26 1011.3
20260831204006 93 270 0.0 0.0 0.00 0.00 0.00 26 1011.4
20260831203750 93 270 0.0 3.0 0.00 0.00 0.00 26 1011.4
20260831203005 92 270 0.0 3.0 0.00 0.00 0.00 27 1011.5
20260831202748 92 202 0.0 0.0 0.00 0.00 0.00 29 1011.4
20260831202003 92 202 0.0 0.0 0.00 0.00 0.00 28 1011.4
20260831201746 92 202 0.0 0.0 0.00 0.00 0.00 29 1011.6
20260831201005 92 202 0.0 0.0 0.00 0.00 0.00 28 1011.7
20260831200504 92 202 0.0 0.0 0.00 0.00 0.00 30 1011.8
20260831200004 92 202 0.0 0.0 0.00 0.00 0.00 28 1011.8
20260831195502 92 202 0.0 0.0 0.00 0.00 0.00 31 1011.8
20260831195256 91 202 0.0 0.0 0.00 0.00 0.00 31 1011.8
20260831194751 90 202 0.0 0.0 0.00 0.00 0.00 33 1011.9
20260831194004 90 202 0.0 0.0 0.00 0.00 0.00 36 1012.0
20260831193504 90 202 0.0 0.0 0.00 0.00 0.00 31 1012.0
20260831193242 89 202 0.0 0.0 0.00 0.00 0.00 33 1012.1
20260831192503 89 202 0.0 0.0 0.00 0.00 0.00 33 1012.1
20260831192002 89 202 0.0 0.0 0.00 0.00 0.00 34 1012.2
20260831191501 89 202 0.0 0.0 0.00 0.00 0.00 34 1012.3
20260831191236 89 202 0.0 0.0 0.00 0.00 0.00 35 1012.2
20260831190504 89 202 0.0 0.0 0.00 0.00 0.00 35 1012.3
20260831190005 88 202 0.0 0.0 0.00 0.00 0.00 35 1012.2
20260831185505 88 202 0.0 0.0 0.00 0.00 0.00 37 1012.3
20260831185312 87 202 0.0 0.0 0.00 0.00 0.00 38 1012.3
20260831185307 87 202 0.0 0.0 0.00 0.00 0.00 35 1012.3
20260831184005 87 202 0.0 0.0 0.00 0.00 0.00 36 1012.3
20260831183747 86 202 0.0 0.0 0.00 0.00 0.00 36 1012.4
20260831183235 86 202 0.0 0.0 0.00 0.00 0.00 36 1012.3
20260831182752 87 202 0.0 0.0 0.00 0.00 0.00 36 1012.4
20260831182003 86 202 0.0 0.0 0.00 0.00 0.00 39 1012.4
20260831181505 86 202 0.0 0.0 0.00 0.00 0.00 36 1012.3
20260831181005 85 202 0.0 0.0 0.00 0.00 0.00 37 1012.4
20260831180506 85 202 0.0 0.0 0.00 0.00 0.00 38 1012.3
20260831180002 85 202 0.0 0.0 0.00 0.00 0.00 39 1012.3
20260831175500 84 202 0.0 0.0 0.00 0.00 0.00 40 1012.3
20260831174959 84 202 0.0 0.0 0.00 0.00 0.00 39 1012.3
20260831174742 84 202 0.0 2.0 0.00 0.00 0.00 40 1012.4
20260831173953 83 202 0.0 2.0 0.00 0.00 0.00 40 1012.3
20260831173453 83 202 0.0 0.0 0.00 0.00 0.00 41 1012.4
20260831173224 83 202 0.0 0.0 0.00 0.00 0.00 41 1012.3
20260831172447 82 202 0.0 0.0 0.00 0.00 0.00 42 1012.3
20260831171935 82 202 0.0 0.0 0.00 0.00 0.00 43 1012.3
20260831171434 81 202 0.0 0.0 0.00 0.00 0.00 43 1012.3
20260831170933 81 202 0.0 0.0 0.00 0.00 0.00 43 1012.3
20260831170431 80 202 0.0 0.0 0.00 0.00 0.00 42 1012.2
20260831170212 80 202 0.0 0.0 0.00 0.00 0.00 45 1012.2
20260831165432 80 202 0.0 0.0 0.00 0.00 0.00 45 1012.2
20260831164933 79 202 0.0 0.0 0.00 0.00 0.00 46 1012.1
20260831164716 79 202 0.0 0.0 0.00 0.00 0.00 45 1012.1
20260831163933 78 202 0.0 0.0 0.00 0.00 0.00 46 1012.0
20260831163434 78 202 0.0 0.0 0.00 0.00 0.00 45 1012.0
20260831162933 78 202 0.0 0.0 0.00 0.00 0.00 47 1012.1
20260831162433 77 202 0.0 0.0 0.00 0.00 0.00 47 1012.1
20260831162215 77 202 0.0 0.0 0.00 0.00 0.00 48 1012.0
20260831161432 76 202 0.0 0.0 0.00 0.00 0.00 48 1012.2
20260831160931 76 202 0.0 2.0 0.00 0.00 0.00 48 1012.2
20260831160433 76 202 0.0 2.0 0.00 0.00 0.00 50 1012.1
20260831155932 75 202 0.0 2.0 0.00 0.00 0.00 50 1012.1
20260831155434 74 298 0.0 0.0 0.00 0.00 0.00 51 1012.0
20260831155214 74 298 0.0 0.0 0.00 0.00 0.00 51 1011.9
20260831154432 73 298 0.0 0.0 0.00 0.00 0.00 53 1011.9
20260831153931 72 298 0.0 0.0 0.00 0.00 0.00 54 1011.9
20260831153431 71 298 0.0 0.0 0.00 0.00 0.00 56 1011.8
20260831153225 70 298 0.0 0.0 0.00 0.00 0.00 57 1011.9
20260831152432 69 298 0.0 0.0 0.00 0.00 0.00 59 1011.9
20260831151931 68 298 0.0 0.0 0.00 0.00 0.00 60 1011.9
20260831151430 67 298 0.0 0.0 0.00 0.00 0.00 63 1011.9
20260831150931 66 298 0.0 0.0 0.00 0.00 0.00 64 1011.9
20260831150432 65 298 0.0 0.0 0.00 0.00 0.00 67 1011.8
20260831145932 64 298 0.0 0.0 0.00 0.00 0.00 67 1011.8
20260831145432 64 298 0.0 0.0 0.00 0.00 0.00 68 1011.8
20260831144931 64 298 0.0 0.0 0.00 0.00 0.00 69 1011.8
20260831144431 63 298 0.0 0.0 0.00 0.00 0.00 70 1011.7
20260831143931 63 298 0.0 0.0 0.00 0.00 0.00 70 1011.7
20260831143431 63 298 0.0 0.0 0.00 0.00 0.00 70 1011.7
20260831142934 63 298 0.0 0.0 0.00 0.00 0.00 70 1011.7
20260831142431 62 298 0.0 0.0 0.00 0.00 0.00 70 1011.6
20260831141932 62 298 0.0 0.0 0.00 0.00 0.00 70 1011.6
20260831141704 62 298 0.0 0.0 0.00 0.00 0.00 70 1011.3
20260831140931 62 298 0.0 0.0 0.00 0.00 0.00 69 1011.2
20260831140433 62 298 0.0 0.0 0.00 0.00 0.00 70 1011.2
20260831135932 62 298 0.0 0.0 0.00 0.00 0.00 71 1011.1
20260831135431 62 298 0.0 0.0 0.00 0.00 0.00 71 1011.1
20260831134934 61 298 0.0 0.0 0.00 0.00 0.00 71 1010.9
20260831134431 61 298 0.0 0.0 0.00 0.00 0.00 71 1011.0
20260831133933 62 298 0.0 0.0 0.00 0.00 0.00 71 1011.0
20260831133714 62 298 0.0 0.0 0.00 0.00 0.00 72 1010.9
20260831132932 62 298 0.0 0.0 0.00 0.00 0.00 72 1010.9
20260831132432 62 298 0.0 0.0 0.00 0.00 0.00 72 1010.8
20260831131930 62 298 0.0 0.0 0.00 0.00 0.00 72 1010.8